Regional Weather Roundup
Issued by NWS

Home | Current Version | Previous Version | Text Only | Print | Product List | Glossary On
Versions: 1 2 3 4 5 6 7 8 9 10 11 12 13 14 15 16 17 18 19 20 21 22 23 24 25 26 27 28 29 30 31 32 33 34 35 36 37 38 39 40 41 42 43 44 45 46 47 48 49 50
000
ASCA42 TJSJ 280711
RWRPR
PUERTO RICO/U.S. VIRGIN ISLANDS HOURLY WEATHER ROUNDUP
NATIONAL WEATHER SERVICE SAN JUAN PR
300 AM AST THU AUG 28 2014

PRZ001-004-280800-
PUERTO RICO

CITY           SKY/WX    TMP DP  RH WIND       PRES   REMARKS
SAN JUAN LMM   PTCLDY    82  77  83 E14       29.96F HX  91
PONCE          PTCLDY    81  75  83 E6        29.91F
AGUADILLA      CLEAR     79  75  89 E13       29.97
CEIBA          MOCLDY    82  75  78 E13G18    29.99F
$$

PRZ006-007-280800-
U.S. VIRGIN ISLANDS

CITY           SKY/WX    TMP DP  RH WIND       PRES   REMARKS
CHARLOTTE AMA  CLOUDY    81  75  83 E10       29.96S
CHRISTIANSTED  PTCLDY    81  75  83 NE15      29.95
$$

HOURLY WEATHER ROUNDUP FOR THE NEWS MEDIA

CITY           SKY/WX    TMP DP  RH WIND       PRES   REMARKS
MIAMI          MOCLDY    81  75  82 SW6       29.96F
ORLANDO        CLEAR     77  70  79 NE3       29.99F
NEW YORK       PTCLDY    76  66  71 N10       29.84F
NEWARK         PTCLDY    77  66  68 N15       29.85F
CHICAGO        MOCLDY    68  58  70 NE3       30.14R
HARTFORD       MOCLDY    68  65  90 CALM      29.81S
BOSTON         PTCLDY    73  67  81 NW10      29.81S
DALLAS         CLEAR     80  60  50 E6        29.98F
PHILADELPHIA   PTCLDY    78  67  68 N10       29.86S



USA.gov is the U.S. government's official web portal to all federal, state and local government web resources and services.